Theta_e
318 321 321 323 325 327 327 325 326 325 325 326 326 325 325 324 325 326 326 327 327 326 326 326 325 324 324 324 324 323 322 322 323 322 320 320 319 319 319 316 314 315 315 314 313 314 314 313 312 311 310 309 309 309 309 309 309 309 309 309 309 308 308 308 308 308 308 308 308 308 308 308 308 307 307 307 307 307 307 307 307 307 306 306 306 306 306 306 306 307 307 307 308 308 309 309 310
316 320 322 324 326 327 327 326 327 326 326 326 326 324 325 324 326 326 326 326 327 326 326 326 326 325 324 324 324 323 323 323 323 323 321 319 319 319 320 318 314 315 314 313 313 313 314 313 312 311 310 310 309 309 309 309 309 309 309 309 308 308 308 308 308 308 308 308 308 308 307 307 307 307 307 307 307 307 307 307 307 307 307 306 306 306 306 306 306 306 307 308 308 309 309 309 310
315 318 322 326 326 326 326 326 327 327 327 327 325 324 325 325 325 325 325 326 327 327 326 325 326 325 324 323 322 322 324 325 323 322 321 320 320 320 322 320 316 314 313 313 313 314 314 313 312 311 310 310 309 309 309 309 309 309 309 308 308 308 308 308 308 308 308 308 308 307 308 308 307 307 307 307 307 307 307 307 307 307 307 306 306 306 306 306 306 306 307 307 308 308 309 309 309
316 318 322 325 326 326 326 326 327 326 327 327 325 324 325 325 325 325 326 326 327 327 326 325 325 325 324 323 323 323 323 324 325 323 321 321 321 322 323 322 319 316 314 313 313 313 313 313 312 311 310 310 309 309 309 309 309 308 308 308 308 308 308 308 308 308 308 308 308 308 307 307 307 307 307 307 307 307 307 307 307 307 307 307 306 306 306 306 306 306 306 307 307 308 308 309 309
316 319 323 325 325 325 326 326 326 327 327 325 324 324 324 325 324 325 326 326 326 326 327 327 326 324 323 323 324 324 324 324 324 323 321 322 322 322 323 323 320 318 318 315 313 313 313 313 313 312 311 310 309 309 309 309 309 309 308 308 308 308 308 308 308 308 308 308 307 308 307 307 307 307 307 307 307 307 307 307 307 307 307 306 306 306 306 306 306 306 306 306 307 307 308 308 309
317 320 323 324 324 324 325 326 326 326 326 324 324 323 323 324 323 324 325 326 326 326 327 328 326 326 325 324 324 324 324 323 322 322 321 322 322 322 324 323 319 319 318 315 314 314 313 313 313 313 311 310 310 309 309 309 309 309 308 308 308 308 308 308 308 308 308 308 307 307 307 307 307 307 307 307 307 307 307 307 307 307 307 307 307 306 306 306 306 306 306 306 306 307 308 308 309
317 319 322 325 324 324 324 325 325 325 324 323 324 323 323 323 323 323 324 324 326 326 326 326 325 327 328 326 324 324 324 324 322 322 321 322 322 323 325 321 317 317 317 315 314 314 313 313 313 313 311 310 310 309 309 309 309 309 308 308 308 308 308 308 308 308 308 308 308 307 307 307 307 307 307 307 307 307 307 307 307 307 307 307 307 306 306 306 306 306 306 306 306 307 307 308 309
317 318 320 324 324 324 324 324 323 323 323 322 322 322 322 322 323 323 323 324 324 326 326 326 325 326 327 326 325 324 323 324 323 323 322 322 322 323 324 322 319 318 317 316 314 314 314 312 312 312 311 310 310 310 309 309 309 309 308 308 308 308 308 308 308 308 308 308 307 307 307 307 307 307 307 307 307 307 307 307 307 307 307 307 307 307 306 306 306 306 306 306 306 306 307 307 308
318 318 319 321 323 324 325 325 324 323 323 322 322 322 322 322 323 322 322 323 323 324 325 325 325 324 324 324 324 324 323 323 323 323 323 323 323 324 324 323 322 321 320 319 315 314 314 312 312 311 311 310 310 309 309 309 309 309 308 308 308 308 308 308 308 308 308 308 307 307 307 307 307 307 307 307 307 307 307 307 307 307 307 307 307 307 307 306 306 306 306 306 306 306 306 307 308
318 319 320 321 322 323 324 324 323 323 323 323 322 322 323 323 323 323 322 323 323 324 324 324 324 324 323 323 324 324 323 323 323 323 323 324 324 324 324 324 324 322 322 321 316 313 313 313 311 311 310 310 310 309 309 309 309 309 308 308 308 308 308 308 308 308 308 308 307 307 307 307 307 307 308 308 308 307 307 307 307 307 307 307 307 306 307 306 306 306 306 306 306 306 306 307 307
318 319 320 322 322 323 323 322 322 322 322 322 322 322 322 323 322 322 322 322 323 323 324 324 323 324 324 323 324 323 323 324 323 324 324 324 324 324 324 324 324 323 323 321 317 314 313 313 312 311 311 310 310 309 309 309 309 309 309 308 309 308 308 308 308 308 308 307 307 307 307 306 307 307 307 308 308 308 307 307 307 307 307 307 307 306 307 307 306 306 306 306 306 306 306 306 307
317 319 320 322 322 322 322 322 322 321 321 321 321 322 321 322 322 322 322 322 323 323 323 324 324 324 324 323 323 323 323 324 324 324 324 324 323 323 323 324 324 323 323 321 318 315 313 312 312 311 311 310 310 310 309 309 309 309 309 309 309 309 309 308 308 308 308 308 307 307 307 307 306 306 307 307 308 308 307 307 307 307 307 307 307 307 307 307 307 306 306 306 306 306 306 306 306
317 318 319 320 321 321 321 321 321 321 321 321 320 321 321 321 321 321 322 322 322 322 323 323 323 324 324 324 324 324 324 324 323 323 323 323 323 323 323 324 324 324 323 321 318 315 314 313 312 312 311 310 310 310 310 309 309 309 309 309 309 309 309 309 308 308 308 308 308 308 307 307 307 306 307 307 308 308 308 307 307 307 307 307 307 307 307 307 307 307 306 306 306 306 306 306 306
317 317 318 319 319 319 320 320 320 321 321 320 320 321 320 321 320 321 321 321 322 322 322 322 323 324 324 324 324 324 325 324 323 322 322 322 323 323 323 323 324 324 324 322 318 315 314 313 312 312 311 311 311 310 310 310 309 309 309 309 309 309 308 309 309 308 308 308 308 308 307 307 307 307 306 307 307 308 308 308 307 307 307 307 307 307 307 307 307 307 307 306 306 306 306 306 306
317 317 318 319 319 319 319 319 320 320 320 319 320 320 320 320 320 320 321 321 321 322 322 321 322 322 323 323 324 325 324 322 321 321 321 321 321 322 323 323 324 323 324 323 318 315 314 313 312 312 312 311 311 311 310 310 309 309 309 309 309 309 308 308 308 308 308 308 308 308 308 308 307 307 307 306 307 307 308 308 308 307 307 307 307 307 307 307 307 307 307 306 306 306 306 306 306
317 317 318 318 319 319 319 319 319 320 320 319 319 320 319 319 319 319 320 320 320 320 320 320 321 321 322 323 323 324 323 322 321 321 320 320 321 322 322 322 323 323 323 322 319 316 314 313 313 312 312 311 312 311 311 310 310 310 309 309 309 309 309 308 308 308 308 308 308 308 308 308 308 307 307 307 306 307 307 308 308 308 308 307 307 307 307 307 307 307 307 307 306 306 306 306 306
317 317 317 318 318 318 319 318 319 319 319 318 319 319 318 318 319 319 319 319 319 319 319 319 320 320 321 321 322 322 323 322 321 321 321 321 321 321 321 322 323 323 323 321 318 316 315 313 313 313 312 312 312 312 311 311 311 310 310 310 309 310 309 309 309 309 308 308 308 308 308 308 308 307 307 307 307 307 306 307 308 308 308 307 308 308 307 307 307 307 307 307 306 306 306 306 306
317 317 317 318 318 318 318 318 318 318 318 318 318 318 317 317 318 318 318 318 318 318 319 319 319 319 319 319 320 320 321 321 320 320 320 320 321 321 321 322 322 322 323 322 318 316 315 314 313 313 313 312 312 312 312 312 312 311 310 310 310 310 309 310 310 309 309 309 309 309 309 309 308 308 307 307 307 307 306 306 307 307 308 307 307 307 308 307 307 307 307 307 307 306 306 306 306
316 317 317 318 318 317 317 317 317 317 317 317 317 317 317 317 317 318 317 317 317 317 318 318 319 319 319 319 319 319 320 320 320 320 320 320 320 321 322 321 322 322 322 323 320 315 315 314 313 313 313 312 312 312 312 313 312 312 311 311 310 310 309 310 310 310 310 309 310 309 309 309 309 308 308 307 307 307 307 306 306 307 307 307 307 308 308 308 307 307 307 307 307 306 306 306 306
316 316 317 317 317 317 317 317 317 317 316 316 316 316 316 316 316 316 316 316 316 316 317 317 318 318 319 319 319 319 320 320 320 320 320 320 321 321 322 322 322 321 321 323 322 317 315 314 313 313 313 313 313 313 313 313 313 313 312 312 311 311 310 310 310 310 310 310 311 311 311 310 309 309 308 308 307 307 307 307 306 306 307 307 307 307 307 308 307 307 307 307 307 307 306 306 306
316 316 316 316 316 315 316 316 316 316 315 315 316 315 315 316 316 316 315 315 315 316 316 317 317 318 318 318 318 318 319 320 320 320 321 321 321 321 322 323 323 322 321 322 322 321 317 314 314 313 313 314 314 314 315 314 314 315 314 314 314 314 313 313 312 311 311 311 312 312 312 312 311 310 309 308 308 308 307 307 307 306 306 306 307 307 307 308 307 308 307 307 307 307 306 306 306
315 315 315 315 315 314 315 315 315 315 315 315 315 315 315 315 315 315 315 315 315 315 316 316 317 317 318 317 318 318 318 319 319 320 320 321 321 321 321 322 323 322 322 321 321 322 320 316 314 314 313 314 315 316 316 315 315 316 317 318 318 319 319 319 318 316 313 312 312 312 313 313 313 312 311 310 309 308 307 308 307 307 306 306 306 307 307 307 307 308 307 307 307 307 307 306 306
314 314 315 315 315 314 314 315 314 315 314 314 314 314 314 314 314 314 315 315 315 315 315 316 316 316 317 317 317 317 317 318 318 318 319 319 319 319 320 321 322 321 321 321 321 321 322 319 316 315 314 314 314 315 315 316 316 316 317 319 320 320 320 321 321 321 319 316 314 312 313 314 314 313 313 313 311 310 308 307 307 307 307 306 306 306 307 307 307 308 308 308 307 307 307 307 306
314 314 314 314 314 314 314 314 314 314 313 313 313 313 313 313 313 314 314 314 314 315 314 315 315 315 316 316 316 316 316 316 316 317 317 317 318 318 318 319 320 320 320 321 321 321 321 321 320 317 315 314 314 314 314 315 316 316 316 317 318 318 318 319 320 321 321 321 319 315 313 312 313 314 313 314 313 312 309 308 307 307 307 307 306 306 306 307 307 307 307 308 307 307 307 307 307
314 313 314 314 314 314 314 313 313 313 313 313 312 312 312 313 313 313 313 313 314 314 314 314 314 314 315 315 315 315 315 315 315 315 315 315 316 317 317 317 318 319 319 320 320 321 320 321 321 320 317 315 314 314 315 316 317 316 316 316 316 316 317 318 319 320 321 321 322 320 316 313 312 313 313 314 314 313 311 308 307 307 307 307 307 306 306 306 307 307 307 308 307 307 307 307 307
314 313 314 313 313 314 313 313 313 313 313 313 312 312 312 313 313 313 313 313 313 313 313 313 313 313 314 314 314 314 314 314 314 314 314 314 315 316 316 317 317 318 318 319 319 320 320 320 320 321 320 318 316 315 316 317 318 318 318 317 317 318 318 319 319 320 320 320 321 322 320 317 313 312 313 313 313 314 313 310 308 307 307 308 307 306 305 306 306 307 307 307 307 307 307 307 307
314 314 314 313 313 313 313 313 313 313 314 313 313 312 312 313 313 313 313 313 313 313 313 313 313 313 313 313 313 314 314 314 314 314 314 314 314 315 315 316 316 317 317 318 318 319 319 320 320 320 320 320 319 317 317 318 318 319 319 319 320 320 320 320 320 320 320 320 320 321 322 320 317 313 312 313 313 314 314 311 308 307 308 308 308 307 306 306 306 306 307 307 307 307 307 307 307
314 314 314 313 313 314 314 313 314 314 314 314 313 313 313 314 313 313 313 313 313 313 313 313 313 313 313 314 314 314 314 315 315 315 315 315 315 315 315 316 316 317 317 317 317 317 318 319 319 319 320 320 320 319 318 318 318 319 320 320 320 321 321 321 321 320 320 320 320 320 320 321 319 316 313 313 313 313 314 313 310 308 308 308 308 307 306 305 305 306 306 307 307 307 307 307 307
315 314 314 314 314 314 314 314 314 314 314 314 314 313 314 313 313 313 313 313 313 313 313 313 313 313 314 314 314 314 314 314 314 315 315 315 316 315 315 316 316 317 317 317 317 317 317 318 318 318 318 319 320 320 320 319 319 319 319 320 320 321 321 321 321 321 320 320 319 319 319 320 320 318 315 313 312 313 313 314 312 309 307 308 308 307 306 305 305 305 306 306 307 307 307 307 307
315 315 314 315 315 315 315 315 315 315 314 314 313 313 313 312 312 313 313 313 313 313 313 313 313 313 313 314 314 314 314 314 313 313 314 314 315 315 315 315 316 316 316 316 316 317 317 317 317 317 317 318 318 319 320 320 320 319 320 320 321 321 321 321 321 321 320 319 319 318 318 319 319 318 317 315 313 312 312 313 313 310 308 308 308 307 307 306 305 305 305 306 306 307 307 307 307
315 315 315 315 316 316 316 315 315 314 314 313 313 312 312 311 312 312 312 312 312 312 312 313 313 313 313 313 313 313 313 313 313 312 313 313 314 314 314 314 314 315 315 316 316 316 316 316 317 316 317 317 317 317 318 319 320 320 320 320 321 321 321 321 321 320 319 319 318 317 317 318 318 318 318 317 315 313 312 312 313 312 309 308 308 307 307 307 306 305 305 306 306 307 307 307 307
316 316 317 317 317 317 316 315 314 313 313 312 311 311 311 311 311 312 312 312 311 311 312 312 312 312 312 312 312 312 312 312 312 312 312 313 313 313 313 313 314 314 314 314 315 315 315 316 316 316 316 317 317 316 316 317 319 320 320 320 321 321 320 320 320 319 318 317 317 316 316 316 317 316 317 317 316 314 312 312 313 313 310 308 308 307 307 307 306 306 305 306 306 306 307 307 307
316 317 318 317 317 315 314 314 314 313 312 311 311 311 311 311 311 312 312 312 312 311 312 312 312 312 312 312 312 312 312 312 312 312 312 313 313 313 313 313 313 313 313 313 314 314 314 315 315 314 314 315 315 314 315 316 317 318 319 319 319 319 319 319 319 317 316 316 315 315 315 315 315 315 315 316 317 316 313 312 312 313 312 309 308 308 308 308 308 306 306 306 305 306 306 307 307
318 318 317 316 315 314 313 313 314 313 312 311 311 310 310 311 311 312 312 313 313 313 313 313 313 313 313 313 313 312 312 312 312 312 312 312 312 313 313 313 313 313 313 313 313 313 313 313 314 313 313 312 313 312 313 315 315 316 317 318 318 318 318 318 317 316 315 315 314 313 313 313 313 313 314 315 316 316 315 313 311 312 312 311 309 308 308 308 308 307 306 306 305 305 306 306 307
318 318 317 316 314 313 313 313 313 313 312 312 312 311 311 311 312 312 313 314 314 314 315 315 315 314 314 314 313 313 313 313 313 313 313 313 312 313 313 313 313 313 313 313 313 312 313 313 313 313 312 312 311 311 312 313 314 315 316 316 316 316 316 316 315 314 314 314 313 313 312 311 311 312 313 314 315 316 315 314 312 312 312 312 311 309 308 307 308 308 307 306 305 305 305 306 307
317 317 316 315 314 313 313 312 313 313 313 313 312 312 312 312 312 313 314 315 315 315 315 316 316 316 315 315 315 314 314 314 314 314 314 314 313 313 313 312 312 313 313 313 313 313 313 313 313 313 312 312 311 311 311 312 313 314 314 315 315 316 316 314 314 313 313 313 313 312 310 311 311 311 312 312 314 315 315 315 313 312 312 312 312 311 309 308 308 309 308 307 306 305 305 305 306
316 316 315 314 314 313 313 314 315 314 313 313 312 312 312 312 313 314 315 315 315 316 316 316 316 316 316 316 316 315 315 315 314 315 314 315 315 314 313 313 313 312 313 313 313 313 313 313 313 313 312 312 311 311 311 311 313 314 314 315 315 316 315 314 313 312 313 312 312 310 310 311 310 310 311 311 313 314 315 315 314 313 312 312 312 312 311 310 308 308 308 307 306 306 305 305 306
316 315 314 314 314 313 314 315 315 313 312 313 312 313 313 314 314 315 315 316 316 317 318 317 316 317 317 316 316 316 316 316 315 315 315 315 315 315 314 314 313 313 313 313 313 313 313 313 313 312 312 311 311 311 311 311 312 313 314 315 316 315 314 313 313 312 312 311 310 310 310 310 310 309 310 311 313 314 315 315 315 313 312 312 312 312 312 311 309 308 308 307 307 306 305 305 305
316 315 315 315 314 315 316 317 316 313 313 313 313 314 315 315 315 316 316 317 318 318 318 317 316 316 317 317 317 316 316 316 316 316 316 316 315 315 315 314 314 314 313 313 313 313 313 313 313 312 312 311 311 311 311 311 311 312 313 313 314 313 313 312 312 311 311 310 310 310 310 310 310 310 310 311 313 314 315 315 314 313 312 312 312 312 312 311 310 309 308 308 308 307 306 305 305
316 316 316 315 315 317 318 318 317 315 314 314 315 315 315 316 317 317 318 319 319 318 317 316 316 315 315 316 315 315 316 315 315 315 315 315 315 315 315 315 315 314 314 314 313 313 312 312 313 312 312 312 312 312 311 311 311 311 311 311 311 311 311 311 310 310 310 310 310 311 311 310 309 310 310 311 312 313 314 314 314 313 312 312 312 312 312 311 311 310 309 309 308 308 307 306 305
317 316 316 315 315 318 319 318 316 314 315 315 315 317 318 319 319 318 318 320 319 317 317 317 316 315 314 314 314 314 314 314 314 314 313 314 314 315 315 315 315 314 314 313 313 313 312 312 312 312 312 312 312 312 311 311 311 310 310 310 310 310 310 310 310 310 310 310 311 311 311 310 309 310 310 311 311 311 312 313 313 313 312 312 312 312 312 311 311 311 311 310 309 309 308 307 305
317 317 317 317 317 318 318 317 317 316 318 318 316 319 321 320 318 318 319 319 318 317 318 318 316 315 314 314 314 314 314 314 314 314 313 314 314 314 314 314 314 314 313 313 312 312 312 311 311 311 312 311 311 311 311 311 310 310 310 310 310 310 310 311 311 311 311 311 311 310 310 310 310 310 310 310 310 311 312 313 313 313 312 312 312 312 312 312 311 311 311 311 310 310 309 307 306
316 317 318 318 318 319 318 316 317 318 319 318 317 320 321 319 317 318 319 319 317 316 318 318 315 314 314 314 314 315 314 314 313 313 313 313 314 314 313 313 313 313 313 312 310 310 310 310 310 311 311 311 311 311 310 310 310 310 310 310 310 311 311 311 311 311 311 311 311 310 310 310 310 310 310 310 310 310 311 312 312 312 312 313 313 312 312 312 312 311 311 311 311 310 309 308 307
317 317 317 318 317 317 317 316 317 318 317 317 318 319 319 319 318 317 318 319 318 316 317 317 314 313 313 313 314 313 313 313 312 312 313 313 313 313 313 313 313 313 312 311 310 309 309 310 310 310 310 310 311 311 311 311 311 311 311 311 311 311 311 311 311 311 311 311 310 310 310 310 310 310 310 309 309 310 310 311 312 312 312 312 313 312 312 312 312 311 311 311 311 310 309 309 308
317 316 315 315 315 315 316 316 317 317 317 318 319 319 320 321 319 316 319 318 317 317 316 316 314 312 312 312 312 312 312 313 312 312 313 314 312 312 313 313 313 313 311 310 310 310 310 309 310 310 310 310 310 311 311 311 311 311 311 311 310 310 310 310 310 310 310 310 310 310 309 310 310 310 310 310 310 310 310 310 310 311 311 311 312 312 312 312 311 311 311 311 311 310 309 308 308
316 315 315 314 315 315 315 317 317 317 318 318 319 319 320 322 319 317 319 317 315 317 315 314 312 311 312 312 311 311 311 312 312 311 312 314 313 311 311 313 312 312 311 310 310 311 310 310 310 310 310 310 310 311 311 311 311 311 310 310 310 310 309 309 309 309 309 309 309 309 309 309 309 309 309 309 310 309 310 310 310 310 310 310 311 311 311 311 311 311 311 311 312 311 310 309 308
315 315 315 315 317 317 317 317 316 318 319 319 319 318 318 320 321 318 317 316 315 316 313 312 312 311 312 312 311 311 311 311 311 310 310 313 314 313 313 312 312 311 311 311 311 311 311 311 311 310 310 310 311 310 310 310 310 310 310 310 309 309 309 308 309 309 309 309 309 309 308 309 309 309 309 309 309 309 309 309 309 309 310 310 310 311 311 311 311 311 311 311 311 311 310 309 308
314 314 315 316 318 318 317 317 316 318 320 319 317 317 316 319 322 318 316 315 314 314 312 311 312 311 311 311 310 310 310 310 310 310 309 310 312 315 315 314 312 312 311 311 312 312 312 312 311 311 311 311 311 311 310 310 310 309 309 309 309 309 308 308 308 309 309 309 309 309 308 309 309 309 309 309 309 309 309 309 309 310 310 310 310 310 311 311 311 311 311 311 311 311 310 309 308
313 314 314 315 317 318 320 320 319 319 319 316 315 315 317 318 316 315 314 314 313 313 312 311 311 311 311 311 310 310 310 310 309 309 309 309 310 312 313 313 313 312 312 312 313 312 312 312 312 311 311 311 311 311 311 311 310 309 309 309 309 309 308 308 308 308 308 309 309 309 309 309 309 309 309 309 309 309 309 309 309 310 310 310 310 310 310 310 311 311 311 311 311 311 311 310 309
312 314 315 316 317 318 321 322 322 322 319 315 314 315 318 317 315 315 314 312 312 311 311 311 311 312 311 311 311 311 311 310 310 309 309 309 309 309 310 311 311 312 312 312 312 312 312 312 312 311 311 310 310 310 311 311 311 310 309 309 308 308 307 308 308 308 308 308 308 308 308 308 308 308 309 309 309 309 309 310 310 310 310 310 310 310 310 311 311 311 311 311 311 311 310 310 309
312 313 314 316 318 319 322 323 322 323 321 317 314 316 320 319 317 317 314 311 310 310 310 311 311 311 311 311 311 311 311 310 309 309 309 309 309 309 309 309 310 310 310 310 311 311 311 311 311 311 311 310 310 310 310 311 311 311 310 310 309 308 308 308 308 308 308 308 308 308 308 308 308 308 309 309 309 309 310 310 310 310 310 310 310 310 311 311 311 311 311 311 311 311 311 310 309
314 313 314 315 316 317 321 322 319 319 320 319 316 317 320 318 316 315 313 312 310 309 310 310 311 311 311 310 310 311 311 310 310 309 309 309 308 308 309 309 309 309 310 310 310 310 310 310 310 310 310 310 310 310 310 310 310 311 311 311 310 310 309 309 309 308 308 308 308 308 308 308 308 308 309 309 309 310 310 310 310 310 310 310 310 310 311 311 311 311 311 311 311 311 311 310 309
315 315 316 316 316 316 319 320 317 316 318 319 318 319 318 315 316 316 313 312 311 310 311 310 310 311 310 310 310 310 311 310 310 310 309 309 309 308 309 308 309 309 309 310 310 310 310 310 310 310 310 310 309 309 310 310 310 310 311 311 311 310 310 310 310 309 309 309 309 309 308 309 309 309 309 309 310 310 310 310 310 310 310 310 310 310 310 311 311 311 311 311 311 311 311 310 309
315 316 315 314 316 316 317 317 317 318 318 318 318 320 318 315 316 317 314 312 311 310 311 311 311 310 310 310 310 310 311 311 310 310 310 309 309 309 308 308 308 309 309 309 309 309 309 310 310 310 310 310 310 310 310 310 310 311 311 311 311 311 311 311 311 310 310 310 310 310 309 309 309 310 310 310 310 310 310 310 310 310 310 310 310 310 310 311 311 311 311 311 311 311 311 310 309
312 313 312 313 317 318 317 316 317 319 317 317 318 318 316 316 317 316 314 312 311 310 311 312 312 312 311 310 310 311 311 311 311 311 310 310 309 309 309 308 308 308 308 308 308 308 308 308 309 309 310 310 310 310 310 310 311 311 311 311 311 311 311 311 311 310 310 310 310 310 310 310 310 310 310 310 310 310 310 310 310 310 310 310 310 310 310 310 310 311 311 311 311 311 311 310 309
310 311 311 312 313 316 317 316 316 318 318 317 318 316 316 318 316 314 314 313 311 311 312 313 313 313 312 311 312 313 312 312 312 311 311 310 310 309 309 308 308 308 308 308 308 308 307 307 307 308 309 309 310 310 310 310 311 310 311 311 311 311 311 310 311 311 311 310 310 310 310 310 310 310 310 310 310 310 310 310 310 310 310 310 310 310 310 310 310 310 311 311 311 311 311 310 309
311 311 312 312 311 312 314 315 315 316 317 317 316 315 317 318 314 313 314 313 312 313 313 315 314 313 312 312 313 313 313 312 312 311 311 310 310 309 308 308 307 308 308 308 308 308 307 307 307 307 307 307 308 308 308 309 309 309 309 309 309 309 309 309 309 310 310 310 310 310 310 310 310 310 310 310 310 310 310 310 310 310 310 310 310 310 310 310 310 310 310 310 311 311 311 310 310
312 311 312 312 312 313 314 315 314 314 315 316 315 316 318 317 314 313 312 312 314 315 315 315 314 312 311 312 312 312 312 312 311 311 311 310 310 309 308 308 307 307 308 308 308 308 308 308 307 307 307 307 307 307 307 307 307 307 307 307 308 307 307 308 308 308 308 308 308 308 308 309 309 309 310 310 310 310 309 309 309 309 309 309 309 310 310 310 310 310 310 310 311 311 311 310 310
Wind_Speed
11 11 8 7 6 4 6 9 6 4 4 8 8 7 8 9 11 11 13 13 8 3 6 6 2 4 2 2 2 3 4 5 4 4 5 5 4 2 10 11 9 4 3 4 3 4 6 8 12 14 15 15 15 16 15 16 15 15 14 13 13 12 11 11 10 8 7 7 6 6 5 4 4 4 3 3 3 3 4 5 5 5 6 6 6 6 6 6 6 6 6 6 6 6 6 7 8
9 8 6 7 4 4 7 8 4 3 6 9 8 8 8 8 11 13 13 12 12 8 6 8 9 7 7 8 5 4 8 14 15 11 10 7 5 3 10 10 9 6 3 3 2 2 5 7 11 13 15 16 16 16 15 15 15 14 14 13 12 12 12 11 10 9 8 7 7 6 5 4 4 3 3 2 2 3 4 5 5 5 5 6 6 6 6 6 7 6 6 7 6 6 7 8 8
7 6 4 5 5 7 7 5 4 5 7 10 7 8 8 9 12 13 14 15 16 15 9 8 8 8 9 7 5 4 9 19 22 16 9 3 2 5 11 11 9 6 3 2 2 2 5 7 10 13 15 16 16 16 15 15 15 14 14 13 12 12 12 11 10 9 9 8 7 6 5 4 4 3 2 2 2 3 3 4 4 4 5 5 6 6 6 6 7 7 7 7 7 7 7 7 8
6 4 3 5 7 7 4 3 5 6 7 9 7 7 9 11 13 12 15 16 16 13 8 7 7 8 9 7 6 5 9 18 21 18 9 0 3 6 11 12 9 6 4 5 4 4 5 7 9 11 15 16 16 15 15 15 15 14 14 13 13 12 12 11 10 10 9 8 7 6 5 4 3 3 2 3 3 3 3 4 4 4 4 5 6 6 6 6 7 7 7 7 7 7 7 7 8
4 2 3 6 7 4 3 3 4 7 8 8 7 7 9 12 12 10 11 13 15 13 9 6 5 7 12 11 10 7 8 14 17 16 9 1 1 5 10 13 11 7 6 7 7 6 6 7 9 10 14 16 16 15 15 15 15 15 14 14 13 12 12 12 11 10 10 9 8 6 5 5 4 3 3 4 4 3 3 3 3 3 4 5 6 6 7 7 7 7 7 8 8 7 7 7 8
4 5 6 9 9 6 4 5 5 9 9 9 8 8 11 12 13 14 13 13 14 11 8 6 6 9 8 10 15 14 10 9 10 12 8 2 2 6 9 12 10 7 6 6 8 9 8 6 9 10 12 15 16 15 15 15 15 15 14 14 13 13 13 12 11 11 10 9 8 7 6 5 5 4 4 5 4 4 3 3 3 4 4 5 6 6 7 7 7 8 8 8 8 7 7 7 8
5 6 7 9 9 7 5 7 8 8 9 11 11 11 13 14 15 16 14 12 12 7 4 7 10 12 8 9 12 15 17 15 10 10 12 6 6 8 10 10 8 7 6 6 7 9 9 6 8 10 11 14 15 15 15 15 15 15 15 14 14 13 14 13 12 12 11 10 9 8 7 6 6 6 5 6 5 4 4 3 4 4 4 5 6 7 7 7 8 8 8 8 7 7 7 8 8
5 7 7 5 5 4 5 8 9 8 8 11 13 14 15 18 19 14 12 11 10 9 7 11 17 12 9 14 14 13 18 19 14 10 13 12 10 10 9 9 9 8 6 7 8 9 10 6 7 9 10 13 15 15 15 15 15 15 15 14 14 14 14 14 13 13 11 10 10 9 8 8 8 7 6 6 5 5 4 4 4 4 5 5 6 6 7 8 8 8 8 8 7 7 7 7 8
5 7 6 4 4 4 6 8 9 10 10 12 13 16 19 23 23 14 12 11 11 11 12 16 18 12 8 14 17 15 13 15 16 13 15 15 13 12 9 9 10 10 9 8 9 10 9 7 7 9 10 12 14 15 14 15 15 15 15 15 14 14 14 14 13 13 12 11 11 10 10 10 9 8 7 6 6 5 5 5 5 5 5 6 6 7 7 8 9 9 8 7 7 7 7 8 8
8 9 6 3 4 6 7 8 8 9 11 13 14 18 20 22 21 16 14 12 12 12 16 17 14 15 11 11 16 15 9 10 15 14 14 14 13 13 11 11 11 12 11 9 9 10 10 8 8 10 11 11 13 14 14 15 15 15 15 15 14 15 15 14 14 14 13 13 12 11 11 11 11 10 8 7 6 6 5 5 5 5 5 6 6 7 8 8 9 8 8 8 8 8 7 8 8
8 9 8 4 5 7 7 8 8 9 11 12 13 19 20 19 16 14 15 13 15 14 17 16 12 17 14 13 18 17 14 11 12 13 14 15 15 15 13 13 12 11 12 10 9 11 11 10 10 10 11 11 13 14 14 14 14 14 14 14 14 15 15 15 15 14 14 13 12 13 13 12 12 11 10 8 8 7 6 6 6 6 6 6 7 8 8 8 8 8 8 8 9 8 8 8 8
6 5 6 5 6 7 8 9 9 10 12 12 11 15 17 15 10 9 12 12 15 15 17 16 12 15 11 11 16 18 22 19 18 20 19 20 18 16 14 13 13 12 12 11 10 12 13 12 11 12 12 11 13 14 15 15 15 14 14 14 14 15 15 15 15 15 14 13 13 13 13 13 13 13 11 10 9 8 7 7 7 6 6 6 7 8 8 8 8 8 9 9 9 8 8 8 8
6 4 4 5 6 7 9 9 10 10 10 10 10 15 17 14 9 9 11 12 15 13 15 17 17 17 11 12 16 19 20 17 17 17 17 19 18 16 15 15 15 13 12 12 11 14 15 14 13 13 12 12 13 13 15 15 16 16 15 14 14 14 15 15 15 14 14 14 13 13 13 14 14 14 13 12 10 9 8 8 8 7 6 7 8 8 8 8 8 8 9 10 10 9 8 8 8
7 7 5 5 6 7 9 8 8 9 8 9 12 17 16 13 12 13 11 12 14 14 15 17 19 16 13 14 16 21 19 14 15 14 14 15 14 15 16 17 16 14 13 13 13 15 16 16 15 14 14 14 14 14 15 16 16 16 16 15 14 14 15 15 14 14 14 14 14 13 14 14 14 14 14 14 12 11 10 9 9 8 7 8 9 8 7 7 8 9 9 10 10 9 9 8 8
8 9 5 5 6 7 8 7 9 10 8 9 15 18 15 14 17 16 12 11 14 18 19 18 19 13 11 12 12 18 15 11 12 11 9 9 10 13 14 16 16 15 14 13 13 15 17 18 17 16 16 15 15 14 14 15 16 17 16 16 15 15 15 15 15 14 14 14 14 14 14 14 15 15 14 15 14 13 12 11 10 9 8 9 10 9 7 7 8 9 9 9 9 9 9 8 8
9 7 4 5 7 8 7 7 9 9 8 9 15 17 14 14 18 17 14 15 16 21 21 17 19 17 15 16 15 15 12 10 9 8 9 8 10 11 12 14 14 15 14 13 13 16 18 19 19 18 17 16 16 15 14 15 15 16 16 16 16 16 15 15 15 15 15 14 15 15 15 15 15 16 15 16 16 15 14 13 12 11 9 10 11 9 8 7 8 9 9 9 9 9 9 8 8
9 6 4 6 7 8 7 7 8 8 8 10 15 18 12 13 17 17 17 20 21 23 23 19 22 25 24 23 22 19 14 15 12 13 15 14 15 15 15 15 15 16 15 13 13 16 18 19 20 20 19 18 17 15 14 14 14 15 15 15 16 16 16 15 15 15 15 15 15 16 16 16 17 17 17 16 16 16 16 15 14 12 11 12 12 10 8 8 8 9 9 9 9 9 8 8 8
7 4 5 7 7 8 7 8 9 9 10 10 15 18 13 13 16 18 17 20 24 24 26 24 24 29 28 26 28 27 24 23 19 18 19 18 19 18 16 16 17 17 17 16 13 15 18 20 21 20 20 19 18 16 15 14 14 15 15 15 15 15 16 16 16 16 16 16 16 17 17 17 18 18 18 17 17 17 16 16 16 14 12 13 13 11 10 8 9 10 10 9 9 9 8 8 9
7 4 6 8 7 9 11 13 14 12 12 13 17 20 17 15 18 19 15 17 22 21 22 25 27 28 27 24 26 29 30 31 29 27 26 23 21 19 17 16 17 18 18 19 16 16 18 20 21 21 21 19 18 17 16 15 15 15 14 14 14 15 15 16 16 16 16 16 16 17 16 17 17 18 18 18 18 17 16 17 17 16 15 15 15 13 11 10 10 10 10 9 9 9 8 8 9
8 7 6 8 8 11 15 18 18 18 18 15 17 20 19 19 22 20 15 17 19 18 18 20 26 28 26 24 26 28 28 29 29 29 28 25 23 23 22 21 21 21 21 22 20 18 18 19 21 22 21 19 18 17 17 16 16 15 15 14 14 14 14 14 15 16 16 16 16 16 16 16 16 17 18 19 19 18 17 17 18 18 17 17 17 14 12 11 11 11 11 10 9 9 8 8 9
7 8 6 9 11 11 15 20 22 24 23 19 18 18 17 22 24 20 18 17 14 16 22 23 26 29 28 28 28 29 28 26 27 27 25 23 24 25 25 25 24 23 21 22 23 23 21 20 21 22 22 20 18 17 17 17 16 15 15 15 14 14 14 14 15 15 16 17 17 17 16 16 17 18 18 19 20 19 19 18 18 19 19 19 18 15 13 12 12 12 11 10 10 9 9 9 9
7 10 13 16 15 12 16 22 22 23 24 21 19 15 17 22 22 21 20 16 13 17 26 28 30 31 31 30 27 27 26 26 27 28 27 26 26 25 25 25 24 22 22 21 23 25 26 24 22 22 23 22 20 18 17 16 16 17 17 16 15 15 14 14 15 16 17 19 19 19 18 17 18 19 19 20 21 20 20 20 19 19 19 20 19 16 15 14 13 13 12 11 10 10 9 9 10
8 10 14 17 17 14 19 24 23 24 23 17 16 17 20 20 19 23 24 23 25 27 30 32 32 33 34 34 31 30 30 29 29 29 29 28 27 26 25 24 22 22 24 25 24 26 29 29 26 24 24 25 23 20 19 19 19 19 19 19 18 17 17 17 16 17 18 19 21 21 20 19 19 20 20 21 21 21 21 21 20 19 19 20 20 18 16 16 14 13 13 12 11 11 10 9 10
11 9 11 16 19 19 23 26 24 24 23 21 22 21 20 18 18 22 26 31 35 33 33 36 34 34 35 36 35 35 35 35 35 34 32 32 31 31 29 28 26 24 24 26 28 30 32 32 30 28 26 27 27 25 24 23 22 22 22 23 22 21 21 21 20 19 19 20 22 22 22 22 22 22 21 22 22 22 22 22 22 20 19 20 20 19 17 17 16 14 14 13 11 11 11 10 10
10 11 13 16 19 20 23 24 24 25 25 26 26 21 19 23 22 22 28 35 36 34 34 36 36 35 36 37 37 36 37 38 38 38 36 36 35 35 35 34 32 30 28 27 28 30 32 33 34 33 31 29 28 28 27 26 25 24 25 26 26 25 25 25 24 24 24 23 24 24 25 25 26 24 23 23 23 23 22 22 23 22 20 19 20 20 19 19 17 16 15 14 12 11 11 11 10
8 13 15 15 17 20 23 24 26 28 26 25 22 17 21 26 22 22 32 36 36 37 36 37 37 37 37 38 38 38 39 40 40 40 38 38 37 37 38 36 36 35 34 32 30 30 31 34 35 36 36 34 32 31 30 28 27 27 27 28 28 28 28 28 28 28 28 27 27 26 26 27 29 27 26 25 24 24 23 23 23 24 22 20 19 20 19 19 18 17 16 15 14 12 12 12 11
13 18 19 18 19 23 25 25 29 29 26 27 21 16 22 25 17 16 27 32 33 34 34 37 37 37 39 39 39 39 39 41 41 41 40 39 38 38 38 37 38 38 37 37 36 34 34 35 36 36 37 36 35 34 34 33 32 31 31 31 31 31 31 31 32 32 32 32 30 28 28 29 30 30 29 28 26 25 24 24 24 25 24 21 20 19 20 20 19 18 17 16 15 13 13 13 13
16 18 17 18 18 23 26 24 29 26 19 26 23 17 20 19 15 17 28 34 33 32 31 34 35 35 37 38 39 38 38 39 38 39 39 39 39 38 37 37 37 37 37 38 38 38 38 38 39 38 38 38 37 37 37 36 36 35 34 34 34 34 33 34 35 35 35 35 33 31 31 31 32 32 32 31 29 26 26 25 25 25 24 22 20 20 20 20 20 19 19 17 16 15 14 14 14
16 14 12 15 15 18 21 21 26 20 14 21 17 13 14 11 15 26 34 37 35 34 32 32 33 33 34 36 37 36 37 37 36 37 37 36 36 36 36 36 35 36 36 36 37 38 39 40 40 41 40 40 40 39 39 39 39 38 37 37 36 36 36 36 36 37 37 37 35 34 33 33 33 34 35 34 32 29 27 26 26 26 25 23 21 21 21 21 21 21 20 18 17 16 15 15 15
14 12 9 12 11 11 15 16 15 11 9 10 4 7 10 7 14 25 28 30 29 29 31 32 32 32 32 33 34 35 36 36 36 37 36 35 34 34 35 35 35 35 35 34 36 37 38 39 40 40 41 41 41 40 40 40 40 40 39 39 38 38 37 37 37 38 38 38 37 36 35 35 35 35 36 36 35 33 30 28 27 26 25 24 23 22 22 22 22 22 22 20 18 17 16 16 17
10 10 8 7 7 7 8 8 7 4 4 4 3 6 11 7 13 21 23 25 23 21 23 27 29 30 30 31 33 35 35 35 36 37 36 35 35 35 36 36 37 37 36 35 36 36 36 36 37 38 39 40 40 39 40 41 41 41 40 40 40 39 38 38 38 38 38 39 38 38 37 37 36 36 37 37 37 36 33 30 28 27 26 25 25 24 23 23 23 23 22 21 19 19 18 17 17
7 7 6 5 6 7 5 5 8 6 2 7 7 6 11 11 13 19 22 23 23 21 21 24 25 28 29 30 32 33 34 34 34 35 35 35 35 35 36 36 37 38 38 38 37 37 36 35 34 35 37 38 38 38 39 39 39 40 41 41 41 40 39 38 38 38 39 39 38 38 38 38 38 38 38 38 38 38 36 33 30 28 27 27 27 25 24 24 23 23 23 22 21 20 19 18 18
5 6 6 5 5 7 5 5 7 4 0 7 9 7 11 13 13 19 22 23 25 23 23 27 29 30 31 30 30 31 32 32 33 34 34 34 34 35 36 37 38 38 38 38 38 37 37 36 34 34 35 35 35 36 37 37 37 38 40 41 41 39 39 38 39 39 39 39 38 38 38 38 39 39 39 39 39 39 38 36 32 30 29 28 28 27 25 25 24 24 24 23 23 21 20 19 19
4 4 4 6 7 7 6 8 5 1 3 7 10 10 14 17 17 23 27 26 24 21 22 27 28 30 31 31 30 31 31 32 34 36 35 34 34 35 36 38 39 39 38 37 36 36 37 37 36 34 33 32 31 32 34 35 37 38 39 40 40 38 38 39 39 39 40 39 37 36 36 37 39 40 40 40 40 40 39 38 35 32 30 29 30 29 26 26 25 25 24 24 24 23 22 20 19
5 4 4 6 7 7 9 9 6 5 8 10 10 11 16 20 19 22 29 27 21 20 24 26 27 28 30 30 30 31 32 33 35 36 36 35 34 34 36 37 38 39 38 38 37 37 37 37 36 34 33 32 30 31 32 34 37 38 39 39 38 37 39 40 40 40 40 39 36 35 36 37 39 40 40 41 41 41 40 39 38 35 32 30 31 31 28 28 27 26 25 25 24 23 23 21 20
9 8 6 7 7 8 10 10 10 10 10 10 9 12 17 21 20 20 27 28 19 20 23 24 25 26 27 28 28 29 31 34 35 34 34 34 34 34 35 35 37 38 38 38 37 37 37 37 36 35 34 32 31 32 34 36 38 38 38 38 38 39 40 41 40 40 41 39 35 34 36 39 40 40 40 40 41 42 41 40 39 37 34 32 32 32 30 29 29 27 27 26 25 24 24 23 21
11 8 6 8 8 9 9 11 11 5 5 8 9 13 18 21 21 19 23 24 16 15 15 15 19 23 24 26 26 26 28 31 32 31 31 30 31 32 33 34 35 36 36 36 36 36 37 37 37 36 34 33 33 34 36 38 39 39 38 38 40 41 42 41 41 41 41 37 34 34 38 40 40 40 39 40 41 41 42 41 39 38 36 34 33 32 30 29 29 28 27 27 26 25 25 25 23
8 6 6 7 7 9 10 12 9 2 1 8 10 15 20 20 20 19 20 19 14 12 10 9 14 18 20 22 23 24 26 28 28 28 28 27 27 28 29 31 31 32 33 34 34 35 36 36 36 35 33 33 35 36 37 39 39 38 38 39 41 42 42 42 41 40 38 35 34 36 39 39 39 39 39 40 40 41 42 41 39 38 38 36 33 32 31 29 30 30 29 29 27 26 26 25 24
6 4 5 7 7 8 9 9 6 2 1 8 12 14 19 21 19 17 17 13 7 5 4 6 10 11 11 12 13 14 16 20 21 22 23 22 23 24 27 29 30 31 31 32 33 33 34 35 34 33 33 34 36 37 38 38 38 37 37 38 39 39 39 38 37 36 35 34 36 38 39 39 38 39 39 39 40 41 42 40 39 39 39 36 34 33 32 31 31 32 31 30 28 27 26 26 26
5 5 6 7 7 6 6 6 7 8 6 9 13 12 15 18 14 11 12 8 1 2 1 5 7 8 8 9 10 10 11 14 16 17 17 18 19 21 24 28 30 32 33 33 32 33 34 34 34 33 34 35 36 36 37 36 36 35 34 35 34 33 33 32 33 34 34 35 37 38 39 38 37 38 39 39 39 41 41 40 39 39 39 37 35 34 33 32 32 33 32 32 30 29 28 28 28
6 8 8 7 8 8 8 7 8 9 7 5 9 11 9 7 6 9 10 3 4 3 3 5 6 4 3 5 8 8 8 10 12 13 14 16 18 20 21 24 26 29 31 33 34 34 34 34 34 33 33 34 35 35 35 35 34 34 33 32 31 31 32 33 34 35 36 37 37 38 38 37 37 37 38 37 37 39 40 40 39 39 39 38 36 35 34 33 33 33 33 32 32 30 29 29 29
6 7 8 9 10 9 8 8 8 7 4 1 8 8 7 4 9 10 9 4 2 2 3 5 7 6 5 8 9 8 6 8 9 10 13 15 16 18 18 20 23 25 26 27 30 31 32 33 33 32 32 33 34 34 34 33 32 32 33 34 35 36 37 38 38 37 37 37 37 37 37 37 37 37 36 35 36 38 39 39 39 39 39 38 37 35 34 34 33 33 33 33 32 31 30 31 31
6 3 5 7 7 6 6 6 5 3 5 4 4 2 6 9 12 9 7 8 2 4 3 3 1 3 5 7 6 2 4 6 6 9 12 13 14 15 16 16 19 22 23 22 23 24 27 30 30 29 29 30 31 31 31 30 30 31 33 36 37 39 39 39 38 37 37 36 36 36 37 37 36 36 36 35 35 37 38 38 38 38 39 38 37 36 36 36 35 34 34 33 32 31 31 33 33
4 0 1 3 4 5 5 5 3 3 6 8 4 6 4 8 11 9 10 9 2 2 3 5 7 11 14 15 13 9 9 7 6 9 11 10 11 11 12 13 16 19 19 19 18 18 22 25 26 26 26 27 28 28 29 30 31 32 34 36 37 38 38 37 36 35 35 35 34 35 36 36 36 35 35 35 35 35 36 37 38 38 38 38 38 37 37 37 36 35 34 33 32 33 34 34 33
2 2 1 1 2 4 4 4 4 4 5 6 4 5 2 6 8 11 10 4 4 4 6 7 8 12 14 14 14 11 9 8 8 9 10 10 9 5 10 11 14 15 13 12 12 13 17 21 23 24 25 26 27 28 29 30 31 32 33 35 36 36 36 35 34 34 33 33 33 34 35 35 35 34 34 34 34 34 35 36 37 37 37 38 38 37 37 37 36 35 35 34 34 35 35 35 34
2 1 1 1 3 4 4 4 4 4 4 7 5 6 2 5 7 9 4 4 6 6 6 7 8 12 14 13 13 12 9 8 8 7 8 11 12 3 8 11 12 12 9 7 7 9 11 13 16 18 20 22 24 25 26 27 29 30 32 33 34 34 34 33 33 33 32 32 32 33 34 35 34 33 33 33 33 33 33 34 35 35 35 36 36 36 35 36 36 35 35 35 36 36 36 35 34
2 1 2 3 5 5 4 4 2 2 4 7 7 9 5 3 6 6 1 4 6 4 5 7 8 10 12 14 17 17 15 13 11 8 7 7 10 8 3 2 3 5 4 4 4 4 6 7 9 11 14 16 17 19 20 22 24 27 29 30 31 32 31 32 32 32 31 32 32 32 33 34 33 33 32 32 31 31 31 32 33 33 33 34 35 34 34 35 36 36 35 36 36 36 35 34 33
3 0 1 3 4 2 2 2 2 1 4 4 3 7 6 4 6 5 5 9 6 4 6 5 5 6 8 14 18 19 20 22 22 20 15 8 6 6 5 4 3 3 3 3 3 3 3 4 5 7 9 10 11 13 14 16 19 22 24 26 27 28 28 30 31 30 30 31 30 30 31 32 33 32 31 30 30 29 29 30 31 32 33 33 34 34 33 34 36 36 36 37 36 35 34 33 33
3 2 1 1 2 1 1 3 2 4 4 2 2 5 4 6 8 10 13 10 2 7 6 5 3 3 6 11 15 18 21 24 27 28 26 20 14 9 5 3 2 2 3 3 3 3 3 3 5 6 7 8 9 10 12 13 15 17 19 21 22 24 25 27 28 28 28 28 28 28 29 30 31 31 30 29 28 27 27 28 29 31 32 31 32 33 33 34 35 36 36 36 35 34 34 33 33
6 4 4 4 2 2 3 4 3 4 3 2 4 4 3 5 6 10 9 1 5 8 9 8 4 2 5 8 11 16 20 23 26 28 29 28 24 19 13 8 5 2 2 4 4 5 5 5 6 7 7 8 9 10 12 13 13 14 16 17 18 20 22 24 24 25 25 25 25 26 27 27 28 28 27 26 25 25 26 26 27 29 29 29 30 32 32 33 34 35 36 35 34 33 33 33 33
7 6 4 4 3 3 3 2 3 3 2 2 5 3 3 3 3 6 1 6 7 9 12 10 5 3 4 7 10 14 18 21 25 27 28 28 27 26 21 16 12 9 6 4 4 5 6 7 8 10 10 10 10 11 12 12 12 12 13 14 15 17 19 21 21 22 23 23 24 25 25 24 25 25 24 24 23 23 24 24 25 26 27 28 29 29 30 31 33 34 35 35 34 33 33 33 33
5 5 4 5 4 3 2 1 1 1 2 2 4 3 5 4 7 13 4 5 7 8 9 6 5 5 1 6 10 13 16 19 23 27 28 27 27 27 24 20 17 13 10 8 6 5 5 6 8 10 11 11 12 12 12 12 12 12 12 13 14 15 17 18 19 19 20 20 21 22 22 22 22 22 23 23 23 23 23 23 24 25 26 27 28 28 28 30 32 34 35 35 35 34 33 33 33
2 4 4 3 1 2 1 2 1 3 1 3 4 3 5 3 8 12 4 6 7 7 6 5 6 6 3 3 8 11 13 17 22 25 26 27 27 27 25 21 18 15 12 11 9 8 6 6 6 8 9 10 11 12 11 12 12 12 13 13 14 14 15 15 15 16 17 17 18 19 19 19 20 21 22 22 23 23 23 23 23 24 24 25 26 27 27 28 31 34 35 35 35 35 34 33 34
2 3 2 1 3 3 1 1 2 1 4 3 4 6 5 2 4 4 6 8 7 8 7 7 7 7 6 3 6 10 11 15 21 24 25 27 28 28 26 21 16 14 12 10 10 9 8 7 5 5 6 7 8 10 10 11 11 12 12 13 13 13 13 13 13 14 15 16 16 17 17 18 19 21 22 22 23 23 23 23 23 24 24 24 25 26 27 28 30 33 34 35 35 35 34 34 34
3 2 2 1 1 1 2 2 1 3 4 4 4 7 6 4 3 4 5 7 9 9 7 7 7 7 7 6 5 8 9 13 19 23 25 27 29 29 26 22 16 12 10 9 8 9 8 7 6 5 5 5 6 7 8 9 10 11 11 12 12 12 12 12 12 13 14 14 15 15 16 17 18 20 21 22 22 23 23 23 24 25 25 25 26 27 27 28 30 32 33 35 35 35 34 34 34
2 3 3 1 1 2 3 3 3 4 3 4 3 4 4 4 5 5 4 3 9 9 7 7 5 3 3 1 5 7 8 12 18 22 24 27 29 29 26 22 18 13 10 8 7 6 6 6 6 6 5 4 5 6 7 8 9 9 10 11 11 11 11 11 11 12 12 13 13 13 15 16 17 18 19 20 21 21 22 22 23 25 25 26 27 28 28 28 29 31 33 34 35 36 35 35 35
4 1 2 3 2 1 1 2 3 3 2 3 3 3 4 4 2 1 5 4 8 10 8 6 2 1 1 4 6 7 9 13 17 20 23 27 29 28 25 22 20 15 10 8 6 5 4 4 4 4 5 5 4 5 6 7 7 8 8 9 9 9 9 9 10 10 10 11 11 12 14 15 16 17 18 19 19 20 21 21 22 24 25 26 27 28 28 28 29 31 32 34 35 36 37 36 36
7 6 7 6 5 3 1 4 4 2 2 3 3 4 5 3 2 3 4 3 6 8 5 3 2 3 4 5 6 10 13 15 17 18 22 27 29 27 24 22 21 17 12 9 6 4 4 4 4 4 4 4 4 4 4 5 6 6 6 6 6 6 6 6 7 7 7 7 8 10 11 13 15 16 17 18 18 19 20 21 22 23 24 25 26 27 28 29 29 30 32 33 35 37 37 37 37
Wind_Direction
299 295 307 323 309 305 250 228 248 237 235 253 245 257 247 244 260 260 261 260 264 242 210 244 256 154 210 241 201 277 272 247 233 220 281 281 201 7 4 2 4 6 313 328 330 234 218 217 211 208 209 211 211 211 211 209 209 207 205 203 198 194 191 189 190 192 187 180 174 172 165 159 161 169 185 199 210 225 235 243 244 244 244 247 248 247 247 247 253 259 269 274 280 296 300 298 307
301 295 306 327 294 243 242 215 238 252 238 255 244 247 254 258 259 260 262 260 263 252 223 238 245 229 237 260 260 253 258 253 251 262 272 249 198 16 3 356 360 8 335 342 10 260 232 222 216 211 212 212 214 213 211 211 210 209 207 206 201 195 192 191 191 192 189 181 175 172 166 165 172 179 188 203 220 232 241 249 249 248 247 251 254 253 254 255 260 264 269 272 280 289 291 297 307
301 296 281 299 258 230 254 208 216 251 240 256 250 242 251 251 250 256 258 261 277 280 262 238 245 227 214 237 233 224 248 251 256 272 279 214 145 12 2 347 343 356 340 316 2 298 255 236 226 216 215 215 215 215 213 212 211 210 208 208 204 198 196 194 194 193 189 182 178 176 174 181 186 193 205 224 238 248 253 261 261 259 255 256 260 262 266 266 269 269 270 273 279 282 288 299 309
293 283 243 264 253 219 244 230 221 247 244 254 260 254 251 251 254 255 255 273 295 293 267 234 240 211 206 229 217 213 236 245 253 263 274 335 33 357 349 339 325 324 325 298 292 296 270 248 238 225 220 218 217 217 215 213 213 212 209 210 206 202 200 197 197 195 192 185 183 184 187 196 204 212 225 245 258 263 267 272 276 275 270 268 269 270 272 271 272 271 269 272 276 279 288 297 309
294 291 259 252 254 216 217 242 226 235 239 251 261 262 262 271 274 271 269 293 302 290 285 262 256 220 209 230 238 237 232 232 239 245 251 129 17 314 327 331 320 296 297 292 281 282 273 250 244 237 227 221 221 218 216 216 214 214 211 211 208 204 203 200 199 198 196 191 191 193 199 211 219 230 234 248 259 265 274 284 287 286 282 278 276 275 270 268 268 269 269 269 275 282 290 298 307
319 315 262 235 253 269 239 235 236 236 239 250 260 266 269 279 285 291 292 300 299 284 283 257 268 285 247 232 238 238 246 234 218 224 229 160 212 274 310 323 322 297 285 284 279 275 269 252 242 241 233 226 224 220 218 217 216 216 213 212 211 207 206 204 201 202 202 198 202 203 209 219 229 240 235 244 255 264 277 287 289 286 284 282 277 273 267 267 267 270 269 269 276 284 294 302 307
303 296 244 221 247 263 249 241 244 248 245 246 256 264 261 268 274 284 289 288 286 268 275 256 255 290 288 265 257 239 242 245 238 228 235 237 231 267 307 319 325 312 301 288 278 272 266 255 238 238 235 228 226 224 220 218 218 218 216 214 213 211 209 207 204 206 208 206 209 213 219 226 235 242 237 246 257 266 276 281 283 278 276 276 273 269 266 267 268 268 267 271 277 285 296 302 305
277 272 251 232 242 227 239 247 245 254 255 256 263 270 271 280 282 277 280 282 280 270 267 247 238 260 262 255 272 257 237 234 239 234 239 250 248 263 293 309 319 311 315 303 276 266 262 255 235 234 232 227 226 226 224 222 220 219 219 215 214 215 213 210 208 209 213 214 216 220 225 230 237 242 241 248 258 264 271 275 275 272 270 267 265 265 265 266 265 263 266 273 279 285 293 296 299
257 249 261 268 256 241 247 250 249 251 254 261 263 270 275 279 283 282 277 272 273 277 261 235 225 247 265 250 257 252 233 218 229 234 237 251 260 268 276 288 310 303 305 308 276 259 254 248 233 229 229 224 223 226 227 226 224 222 221 218 217 218 216 214 213 213 216 219 222 226 229 234 238 242 245 247 255 262 265 269 268 269 266 263 262 262 263 263 262 263 267 274 280 284 288 291 295
252 226 240 254 246 254 252 252 255 255 254 258 257 262 266 268 276 282 280 272 269 270 264 258 248 259 265 256 250 242 233 203 216 231 238 252 263 267 272 274 293 297 295 299 276 255 244 238 228 225 228 223 220 224 227 229 229 226 224 221 221 221 220 218 216 217 219 222 225 229 233 237 239 242 246 246 250 257 259 260 262 266 264 264 265 263 262 261 261 264 269 273 277 280 285 289 292
263 227 230 251 251 253 256 261 260 261 259 259 260 259 262 266 271 274 275 276 272 264 262 265 270 274 266 257 254 250 262 249 233 247 253 261 265 265 269 269 276 287 288 288 270 251 239 231 224 223 226 224 220 222 224 229 230 230 228 225 224 225 223 220 220 220 221 223 226 230 234 237 238 240 242 244 246 251 255 256 259 262 266 271 269 267 263 262 263 266 270 272 273 277 282 286 289
264 246 232 239 245 252 261 269 269 273 276 272 273 273 279 286 282 277 276 274 270 266 265 261 261 274 268 257 260 256 263 266 258 258 257 260 263 263 263 265 271 274 277 280 265 247 237 228 223 221 223 224 222 221 223 226 229 231 231 229 228 228 227 225 224 223 224 226 228 231 234 237 239 239 240 242 243 246 250 253 259 261 268 274 271 269 266 265 268 268 269 269 271 275 278 282 288
238 271 262 256 253 260 263 265 273 279 282 281 283 288 295 299 292 281 280 276 271 268 266 265 263 264 260 259 261 253 253 257 254 245 241 247 253 258 263 269 270 263 266 273 262 246 237 228 222 221 220 222 224 223 224 226 228 231 231 231 231 230 230 230 228 227 227 228 230 232 234 237 239 239 240 241 240 242 244 249 256 260 267 270 270 270 268 269 269 268 267 267 270 272 276 280 286
250 268 264 270 267 266 270 269 274 274 273 281 285 290 294 299 299 288 286 281 271 270 273 276 270 263 260 259 257 253 248 245 243 233 227 235 245 254 263 267 263 256 257 263 259 243 235 228 222 220 219 219 223 222 223 226 228 230 231 231 230 231 231 230 231 231 230 230 232 234 236 238 239 240 241 243 241 239 241 245 251 256 260 264 268 269 267 268 268 267 266 267 270 272 274 279 286
257 279 280 268 272 268 268 270 274 274 275 279 283 297 306 307 310 297 285 282 276 275 278 280 274 265 256 255 255 255 252 241 235 233 238 241 245 247 254 256 252 250 249 254 254 242 235 229 223 219 218 219 221 221 222 226 229 231 232 231 231 231 231 230 231 232 234 232 233 236 238 239 240 241 241 243 242 238 239 242 247 252 255 259 264 267 266 266 266 266 266 267 269 271 272 277 286
248 272 287 261 264 262 260 268 274 273 277 283 292 313 319 306 309 303 289 286 286 279 274 274 276 281 278 271 269 268 264 255 258 272 270 266 260 249 248 249 248 248 248 251 249 241 237 231 225 220 219 219 220 222 223 226 229 233 234 234 233 232 232 231 231 232 234 234 235 237 239 241 242 243 242 243 244 240 239 241 246 249 252 256 261 265 265 264 264 265 266 268 269 270 270 275 281
246 252 254 262 259 259 264 262 267 274 283 292 300 313 317 301 298 296 297 293 287 284 278 272 269 274 279 278 278 279 267 256 278 295 284 285 284 275 268 266 264 256 251 252 246 240 237 234 229 222 219 218 220 221 222 224 227 231 234 234 234 233 233 232 232 232 233 235 237 238 241 243 244 245 244 243 245 243 241 243 245 247 250 254 259 261 263 262 262 264 266 267 268 267 268 270 273
230 246 240 252 251 254 267 267 275 290 295 300 300 301 301 300 294 288 294 291 286 287 281 275 266 260 263 269 272 272 267 265 277 281 277 281 284 283 274 269 271 267 257 249 242 237 235 234 231 224 219 217 218 220 220 222 222 225 229 232 233 233 232 230 230 230 232 235 237 240 243 245 246 247 247 246 247 247 243 243 245 247 248 252 257 258 259 260 259 263 266 266 266 265 265 266 269
208 243 249 253 259 265 272 276 281 287 290 290 290 292 290 289 290 287 284 282 283 284 280 280 274 262 257 263 265 263 261 266 272 271 271 270 267 270 264 257 265 268 262 250 239 235 234 233 231 226 221 215 216 219 220 221 220 220 222 227 229 230 231 230 230 230 231 234 238 242 244 248 250 250 252 250 248 249 246 243 244 247 247 250 254 255 256 257 258 262 265 267 265 264 263 264 270
210 228 249 255 261 270 273 280 287 294 297 293 286 288 286 279 280 283 281 277 274 272 274 277 275 271 268 268 266 264 258 257 262 263 265 265 260 260 259 258 260 260 260 253 242 232 231 230 227 226 223 216 214 216 218 221 221 219 218 221 224 226 230 232 233 234 234 237 240 244 247 250 253 253 254 254 251 250 249 245 242 244 247 249 252 253 254 254 257 262 265 266 264 263 262 262 267
222 230 248 260 271 283 282 287 294 297 296 289 285 287 283 276 275 274 273 272 263 263 268 267 270 273 272 267 263 264 260 256 257 254 253 258 260 259 259 259 258 255 253 253 249 236 228 227 224 223 223 218 214 216 218 219 221 219 217 218 222 224 228 233 236 238 239 240 242 244 247 250 253 254 253 254 255 253 251 248 243 243 246 249 252 252 252 253 256 261 264 263 262 261 260 261 265
242 244 245 255 273 286 281 282 281 282 283 278 278 284 283 281 277 267 264 264 258 259 262 263 267 271 273 274 271 269 267 263 258 254 251 254 256 256 257 256 253 249 239 240 248 242 229 225 225 224 222 217 214 217 221 223 225 222 218 218 222 227 231 238 240 242 242 242 243 244 245 248 252 254 254 255 257 256 253 252 248 245 246 249 252 250 249 251 253 259 262 261 260 259 257 257 263
248 253 252 255 262 270 280 284 283 284 287 285 282 279 276 277 275 269 263 262 264 262 260 262 264 267 274 278 278 276 275 271 265 260 257 255 254 252 253 253 251 247 238 232 236 240 235 227 226 228 225 219 215 217 223 226 226 226 226 225 227 233 238 244 246 248 250 250 248 245 244 248 252 254 255 256 258 257 254 253 252 248 247 249 251 249 247 249 251 255 260 259 255 257 258 256 260
260 274 281 276 268 266 275 282 284 284 284 283 280 277 273 268 270 272 263 260 262 262 261 261 261 262 265 268 269 269 268 267 265 262 260 258 257 254 251 249 249 249 244 237 233 236 239 235 230 229 227 223 219 219 223 225 226 228 231 233 234 238 244 248 252 255 257 258 256 252 248 247 250 253 255 257 258 257 255 254 253 251 249 249 250 248 245 248 251 252 257 258 254 253 255 256 259
263 268 272 278 278 274 274 278 280 279 278 279 276 270 265 263 268 269 263 263 264 263 263 262 261 260 258 258 259 259 259 259 258 258 257 256 256 255 251 247 246 245 243 241 237 236 239 241 238 233 229 225 224 223 225 226 228 231 234 236 238 241 247 252 256 259 260 260 259 257 253 250 249 250 254 257 258 257 255 253 252 253 252 250 249 247 244 246 251 252 255 258 256 254 254 255 257
266 279 280 282 289 292 289 284 281 278 275 275 274 269 266 265 267 264 260 263 265 263 262 261 260 258 257 257 256 255 255 254 255 255 254 253 253 252 250 247 244 241 240 239 237 236 238 242 242 239 234 230 230 229 229 230 233 236 237 239 242 245 250 254 257 259 260 260 260 258 255 254 252 250 251 255 257 257 255 252 251 252 253 252 249 247 244 244 249 251 254 257 258 256 254 254 254
278 284 286 283 289 291 286 280 275 274 274 270 266 264 264 261 259 263 263 264 264 260 258 258 258 256 256 257 257 256 255 254 254 254 253 251 250 249 249 247 244 242 240 238 236 235 236 239 242 243 241 238 236 235 234 236 239 241 242 244 247 250 253 254 256 257 259 259 259 258 256 255 253 250 248 250 254 256 255 252 250 250 251 252 251 248 245 244 247 249 252 255 257 255 254 255 255
290 287 287 282 285 281 275 273 269 267 267 262 258 261 260 253 245 253 264 266 265 261 257 257 256 254 254 254 254 253 254 254 254 254 252 249 248 247 246 245 244 243 241 240 239 237 235 236 240 244 245 243 241 239 239 240 242 244 246 249 250 253 254 254 255 256 257 257 256 256 255 255 253 251 249 248 249 252 254 253 250 249 249 250 251 249 246 245 245 248 250 252 254 254 252 253 255
298 290 290 281 279 273 267 264 260 256 255 255 260 275 260 239 240 249 257 262 262 258 256 257 257 256 255 255 254 252 252 253 252 252 251 249 247 246 245 244 243 242 242 241 241 240 237 235 237 242 245 245 245 244 243 242 243 245 247 250 252 253 254 254 255 256 255 255 254 254 255 254 254 252 250 249 248 249 252 252 250 247 247 247 248 247 245 244 244 245 248 249 251 253 252 251 254
288 278 273 278 282 269 263 263 254 242 249 255 264 289 260 223 243 255 260 264 264 255 248 250 252 253 253 254 254 253 253 253 251 251 250 248 245 245 244 243 242 241 240 241 241 241 240 237 236 239 242 244 245 247 246 245 245 246 248 250 252 253 253 254 256 255 254 253 252 252 253 254 253 252 250 249 248 247 248 250 249 246 244 244 244 245 244 243 242 244 247 248 248 251 251 251 253
274 269 256 263 273 267 270 284 281 242 223 211 167 261 268 257 255 261 263 266 274 270 255 249 247 247 248 250 251 251 250 251 251 251 249 247 244 243 243 242 241 240 239 238 239 240 241 240 237 238 240 241 243 246 247 247 247 247 249 250 251 252 253 254 255 254 252 251 250 250 252 252 252 251 250 249 248 247 246 248 249 246 243 241 241 242 242 242 242 243 246 247 246 247 249 249 252
255 258 263 247 253 281 298 295 289 284 216 186 193 255 275 272 262 264 267 269 274 274 270 266 260 255 250 248 248 248 249 249 250 250 249 247 243 241 241 241 241 241 239 237 237 239 241 241 238 238 239 238 241 244 246 247 248 248 248 250 251 252 252 253 253 253 251 249 248 249 250 250 251 250 249 248 247 247 246 246 248 247 242 240 240 239 240 241 241 242 244 246 245 244 246 248 249
242 232 259 263 277 304 314 310 308 325 149 202 217 263 280 277 274 273 274 272 269 266 264 263 261 260 258 255 252 251 252 251 250 249 248 246 243 240 240 240 241 243 241 238 236 236 238 239 237 238 240 241 243 245 245 246 246 246 247 248 249 249 250 250 251 251 250 248 247 247 248 249 250 249 248 247 247 247 246 246 246 246 243 240 239 238 238 241 241 241 242 245 246 244 244 246 248
255 245 271 292 307 312 301 310 323 130 209 240 241 257 271 277 283 283 280 275 270 266 264 260 257 257 256 255 255 254 253 252 251 249 247 245 242 240 238 239 242 243 243 240 237 236 237 238 238 240 244 245 246 246 245 244 243 243 244 245 246 247 248 249 249 249 248 246 245 247 247 248 249 248 247 246 245 246 246 246 245 244 242 240 240 239 237 239 240 240 241 243 245 245 244 245 247
287 290 303 305 302 298 289 296 311 284 267 267 266 271 277 282 285 288 286 282 273 267 266 264 260 257 254 252 250 250 251 251 251 251 249 246 243 241 238 239 242 243 244 243 240 237 237 238 240 243 245 245 244 244 244 242 241 240 240 242 243 244 246 247 247 247 246 245 245 247 248 248 247 247 246 245 244 245 245 244 243 242 241 240 240 239 236 236 238 239 239 241 242 244 245 245 246
281 287 292 298 293 287 284 283 291 294 288 285 287 285 285 288 289 289 289 287 277 266 266 263 260 259 256 255 251 248 249 251 253 254 254 250 246 244 241 240 242 242 243 243 241 238 236 237 239 240 241 241 240 240 240 238 237 236 237 238 240 242 243 244 245 245 245 245 245 246 246 247 247 246 246 245 243 244 244 243 242 241 241 239 239 240 236 235 238 240 240 240 239 240 241 243 243
264 280 286 285 280 280 286 287 289 309 315 292 289 288 284 285 288 288 289 290 281 265 265 260 258 256 254 254 254 252 251 253 256 256 257 256 251 247 244 242 242 241 241 241 240 237 235 236 238 239 240 240 239 239 239 238 236 235 235 236 239 241 241 241 241 242 243 244 244 244 245 246 247 247 246 244 242 241 242 240 239 240 240 239 240 241 239 237 238 240 240 241 239 239 239 239 241
265 274 281 281 275 279 282 286 294 38 31 286 292 291 287 286 287 287 286 286 277 257 252 260 262 258 253 250 250 250 252 256 258 258 259 259 256 251 246 243 241 240 239 239 238 236 235 236 237 240 241 241 241 241 241 241 240 239 238 238 238 239 239 240 242 243 244 243 242 243 245 247 248 248 246 243 240 239 239 238 238 240 240 240 240 241 240 236 236 237 238 239 238 238 238 238 239
274 270 277 273 270 285 280 280 308 19 269 294 304 298 291 291 285 284 281 273 271 258 248 296 308 308 297 283 271 262 259 260 260 259 259 259 257 252 247 242 239 237 236 236 236 235 234 236 239 241 241 241 241 241 242 243 243 242 240 239 239 239 240 243 244 245 244 242 242 244 246 247 249 249 246 242 238 237 237 238 239 240 240 239 238 239 238 235 234 235 237 239 239 237 236 237 237
251 249 262 267 272 288 282 294 329 327 298 292 305 302 290 288 283 287 285 262 153 89 254 295 320 339 327 306 293 278 269 271 271 269 265 259 253 250 247 243 239 236 234 233 234 235 235 238 241 240 238 238 238 239 241 242 242 240 239 239 240 242 243 244 243 242 241 240 241 242 244 246 249 249 248 243 239 238 239 240 240 240 240 239 238 238 239 237 235 236 236 238 239 237 236 236 235
240 232 237 255 269 268 270 300 323 313 290 287 332 322 285 286 316 315 305 305 99 128 228 263 267 272 267 258 263 259 261 272 275 278 279 269 255 246 246 246 241 238 236 234 234 234 235 237 238 236 233 234 236 237 239 239 238 237 237 236 235 236 237 237 237 237 238 238 239 242 244 246 248 249 249 246 242 241 241 241 240 240 240 239 237 238 240 240 239 239 239 239 241 241 239 238 237
254 229 228 246 264 272 287 316 326 318 285 356 25 342 281 318 331 308 300 320 80 154 243 249 237 227 228 252 252 241 270 289 279 281 287 284 270 249 239 244 242 238 239 239 237 234 233 234 235 234 232 233 236 237 238 238 238 238 237 235 234 233 233 235 237 240 241 242 243 244 244 245 246 248 249 248 244 241 240 240 240 240 241 240 238 238 241 241 240 240 241 241 242 243 241 239 238
269 230 224 251 277 297 309 315 318 311 278 307 30 287 272 308 308 296 299 300 215 177 265 281 304 15 360 330 306 268 332 324 303 300 294 290 285 258 234 236 239 238 243 246 241 235 232 234 236 235 235 236 238 239 239 240 240 240 240 239 239 239 240 242 244 245 246 246 246 244 243 243 244 246 248 247 244 241 239 239 239 240 241 241 239 239 241 242 241 242 243 242 243 242 240 238 238
257 20 213 253 292 292 296 306 288 269 285 291 244 202 252 296 290 289 290 290 227 169 329 6 19 20 16 8 8 13 11 354 327 320 311 306 300 266 229 229 237 239 245 245 240 234 230 231 233 234 235 235 237 239 239 240 241 241 240 240 240 241 242 244 245 245 244 244 243 243 242 242 243 246 248 247 245 241 239 238 238 239 241 242 242 241 242 243 243 242 242 241 240 241 240 239 239
224 47 61 196 299 284 287 289 265 279 304 293 235 164 215 268 276 291 285 305 9 352 10 22 11 13 13 9 11 12 13 8 350 337 331 339 337 268 208 213 228 234 240 239 238 235 229 228 229 231 231 230 233 236 238 240 240 240 239 239 239 239 239 240 241 242 243 243 242 242 241 241 243 245 247 247 245 242 239 239 239 240 242 243 243 242 241 242 242 241 241 240 239 238 239 239 238
162 60 16 245 262 252 254 254 263 297 284 269 242 161 196 273 275 286 297 43 355 333 18 29 11 11 14 21 26 25 23 11 355 348 350 3 16 41 189 203 215 223 232 233 232 229 224 224 225 227 229 230 233 237 239 240 239 239 238 238 238 238 237 237 238 238 240 241 242 241 240 240 241 243 244 245 244 243 241 240 241 241 242 243 243 241 239 239 240 240 241 241 240 238 237 237 238
106 32 314 291 257 224 220 229 247 298 263 262 233 180 172 299 280 265 45 14 321 337 36 29 19 13 24 44 47 44 41 34 25 23 20 19 31 50 104 201 211 203 203 192 192 198 202 211 215 219 224 228 232 236 238 239 238 238 238 238 238 238 237 236 236 237 239 240 240 240 240 240 240 241 243 243 243 244 243 242 242 242 242 240 239 238 235 236 238 238 237 237 237 238 238 237 236
89 140 303 329 286 233 178 184 164 223 253 272 215 168 170 222 264 278 316 315 320 71 72 47 30 3 27 56 57 53 49 45 43 41 42 46 46 63 77 54 64 118 147 152 158 172 190 208 215 221 226 228 231 234 238 239 238 238 238 238 236 235 235 234 236 237 238 240 240 239 238 238 239 240 242 243 243 244 244 243 242 241 240 238 237 236 232 232 234 234 235 235 236 237 238 236 234
129 164 155 32 314 295 207 194 190 213 236 256 143 145 195 239 256 269 284 299 14 107 111 98 75 351 24 56 57 53 49 46 44 41 41 42 41 41 43 48 86 141 163 164 176 200 219 236 240 241 240 239 238 237 238 238 238 238 237 237 236 233 232 233 236 238 239 241 242 242 241 240 241 241 241 242 243 244 245 245 242 241 241 239 237 236 232 231 232 234 235 236 238 238 237 236 233
173 167 161 163 186 242 234 220 221 224 234 226 188 181 246 261 249 251 264 278 122 130 133 128 117 40 28 41 49 49 47 44 41 38 37 37 36 33 26 18 7 324 244 210 212 220 229 238 243 245 242 239 238 236 236 236 235 234 234 236 236 234 233 234 237 240 242 244 245 245 245 244 243 243 242 243 245 246 246 246 246 243 242 241 239 237 234 232 232 234 236 237 238 238 237 236 234
190 183 177 199 205 213 221 212 227 253 299 224 198 203 221 208 253 275 290 114 135 133 136 148 148 116 41 26 40 45 44 42 38 33 31 30 30 29 26 22 16 1 337 297 257 243 243 242 240 240 235 231 231 229 229 231 231 230 229 230 232 232 233 235 237 240 242 243 243 244 243 243 242 242 243 244 244 245 246 247 247 245 243 241 241 240 237 233 232 233 235 237 238 238 237 235 234
195 171 177 231 233 209 238 300 209 147 347 261 201 233 233 217 288 291 290 113 124 126 140 174 179 158 87 12 28 38 41 38 32 28 26 24 23 23 24 21 19 15 4 345 328 302 276 260 249 246 240 232 230 229 225 224 223 222 222 223 224 226 227 230 232 234 237 239 240 241 241 240 241 241 242 242 243 244 245 245 246 246 244 243 242 241 238 234 232 233 234 236 237 238 236 235 234
188 164 181 232 211 140 225 302 27 108 250 250 192 245 273 274 286 274 230 124 127 146 168 197 205 198 194 3 12 25 34 33 28 24 22 21 18 18 19 18 16 16 13 2 352 341 320 299 274 261 257 244 236 233 228 223 218 215 214 215 218 221 223 226 227 229 233 236 236 238 239 238 239 241 242 242 244 245 245 245 245 246 246 245 244 243 241 237 235 235 236 238 239 238 238 236 234
146 184 207 314 22 53 120 282 355 176 251 251 188 236 259 229 275 252 150 135 158 179 185 197 217 219 205 239 344 8 25 30 25 20 18 17 14 12 13 14 13 13 12 7 358 350 340 327 308 286 272 255 244 238 229 223 218 212 210 210 213 216 219 221 223 226 231 235 236 238 239 240 240 243 245 246 247 248 247 247 246 246 246 245 245 245 243 239 237 236 237 239 240 239 238 237 235
129 236 255 100 71 251 161 177 227 212 245 260 219 240 237 184 225 241 174 156 170 183 190 201 218 213 198 224 291 340 13 26 21 17 14 10 7 5 6 8 9 8 8 8 2 352 343 335 328 314 289 259 242 235 227 221 216 210 207 207 208 211 213 216 219 222 228 233 236 239 241 243 244 247 250 251 252 252 252 250 249 248 247 245 245 244 242 239 238 238 238 238 238 238 237 237 235
81 329 301 127 156 206 178 193 217 197 225 258 240 258 252 206 207 228 242 181 165 176 192 206 221 179 148 244 301 331 8 19 13 12 9 3 0 360 2 6 7 6 5 3 3 357 347 339 336 326 307 281 247 233 226 219 215 210 206 203 204 206 207 209 213 218 224 228 231 234 237 242 245 248 252 254 255 255 253 252 251 250 249 247 246 245 243 241 239 239 238 238 238 237 237 236 235
188 218 240 212 194 168 194 251 231 191 206 243 247 259 251 235 179 183 286 261 175 169 179 192 209 97 51 346 351 10 17 13 8 7 3 357 354 355 1 7 7 9 10 3 355 348 341 334 330 323 312 299 276 255 237 225 218 212 208 206 204 205 206 208 213 219 224 226 228 231 233 237 241 244 247 250 252 254 253 252 251 251 250 249 248 247 246 244 242 241 239 238 238 238 237 236 235
188 195 199 199 191 164 217 257 227 192 204 210 233 250 238 252 349 16 324 277 159 146 145 172 247 273 299 333 16 20 11 8 6 3 357 352 349 348 354 0 3 6 9 7 356 329 308 292 286 280 278 281 280 274 257 239 223 207 201 200 199 199 199 203 211 221 230 235 236 238 239 241 243 245 247 249 250 251 252 252 252 252 252 252 251 250 249 247 245 243 241 239 238 238 237 236 235